[[{"header":{"parameterUnit":"m.s-1","parameterCategory":1,"la1":30.2991,"la2":30.254,"lo1":-89.0895,"lo2":-89.0444,"dy":0.0017,"dx":0.0017,"nx":28,"ny":28,"refTime":"2023-09-22T03:00:00:Z","depth":0,"parameterNumber":2,"parameterNumberName":"U-component_of_WINDS"},"data":[0,0,0,0,0,0,0,0,0,0,0,0,0,0,0,0,0,0,0,0,0,0,0,0,0,0,0,0,0,0,0,0,0,0,0,0,0,0,0,0,0,0,0,0,0,0,0,0,0,0,0,0,0,0,0,0,0,0,-4.0849,-4.0849,0,-4.0877,-4.0877,-4.0877,-4.0777,-4.0774,-4.0771,-4.0768,-4.0797,-4.0801,-4.0804,0,0,0,0,0,0,0,0,0,0,0,0,0,-4.071,-4.0713,-4.0848,-4.0849,-4.0849,-4.0876,-4.0877,-4.0877,-4.0777,-4.0774,-4.077,-4.0766,-4.0796,-4.08,-4.0805,0,0,0,0,0,0,0,0,0,0,0,0,0,-4.0757,-4.0714,-4.0848,-4.0803,-4.0799,-4.0876,-4.0877,-4.0877,-4.0778,-4.0773,-4.0769,-4.0765,-4.0795,-4.08,-4.0805,-4.0929,0,0,-4.0822,-4.0824,0,0,0,0,0,0,0,0,-4.0755,-4.0762,-4.0809,-4.0806,-4.0802,-4.0818,-4.0839,-4.0895,-4.0779,-4.0786,-4.0768,-4.0762,-4.0808,-4.0812,-4.0827,-4.093,-4.0931,-4.0822,-4.0825,-4.0828,-4.0829,0,0,0,0,0,0,0,-4.0751,-4.0761,-4.0859,-4.081,-4.0805,-4.0781,-4.0783,-4.0849,-4.0822,-4.0785,-4.0778,-4.0782,-4.0805,-4.0822,-4.0827,-4.0932,-4.0822,-4.0827,-4.083,-4.0832,-4.1139,-4.1144,0,0,0,0,0,0,-4.0754,-4.0759,-4.0859,-4.086,-4.0767,-4.0787,-4.0789,-4.0818,-4.0821,-4.0817,-4.0786,-4.0778,-4.0815,-4.0821,-4.0828,-4.0974,-4.0828,-4.0833,-4.0836,-4.1135,-4.114,-4.1146,0,0,0,0,0,0,-4.0751,-4.0764,-4.0857,-4.0808,-4.0818,-4.0794,-4.0827,-4.0821,-4.0837,-4.0822,-4.0817,-4.0809,-4.0812,-4.082,-4.0905,-4.0974,-4.0835,-4.084,-4.1129,-4.1136,-4.1143,-4.1267,0,0,0,0,0,0,-4.0748,-4.0764,-4.081,-4.0809,-4.0821,-4.0934,-4.0831,-4.0824,-4.0847,-4.0836,-4.0841,-4.0838,-4.0809,-4.0897,-4.091,-4.0979,-4.0844,-4.1122,-4.1132,-4.1141,-4.1257,-4.1278,-4.1296,0,0,0,0,0,-4.0743,-4.0843,-4.0813,-4.0825,-4.0878,-4.0938,-4.0945,-4.0909,-4.0853,-4.09,-4.089,-4.0838,-4.0964,-4.0907,-4.092,-4.0992,-4.1118,-4.1129,-4.114,-4.1248,-4.1274,-4.1296,0,0,0,0,0,0,-4.0852,-4.0842,-4.0808,-4.0911,-4.0926,-4.0921,-4.0979,-4.0937,-4.0969,-4.0957,-4.0912,-4.0914,-4.1007,-4.1007,-4.0944,-4.1112,-4.1031,-4.1046,-4.1109,-4.1133,-4.1152,-4.1151,-4.0849,0,0,0,0,0,-4.0888,-4.0938,-4.0926,-4.1018,-4.1028,-4.1002,-4.1027,-4.0999,-4.1012,-4.1018,-4.1014,-4.103,-4.1074,-4.1103,-4.1142,-4.1256,-4.1257,-4.1312,-4.1331,-4.1348,-4.1361,-4.1424,-4.1449,-4.1182,-4.1182,-4.1182,0,0,-4.0963,-4.0964,-4.0998,-4.104,-4.1049,-4.1102,-4.1008,-4.1068,-4.1107,-4.1027,-4.1107,-4.1106,-4.112,-4.1221,-4.1265,-4.1224,-4.1435,-4.1362,-4.1375,-4.1379,-4.1438,-4.1463,-4.1485,-4.119,-4.1188,-4.1187,0,0,-4.1127,-4.1132,-4.121,-4.1221,-4.1235,-4.1217,-4.1237,-4.1238,-4.1234,-4.1313,-4.1255,-4.1301,-4.1376,-4.139,-4.1407,-4.1578,-4.1532,-4.1591,-4.1694,-4.1756,-4.1777,-4.1795,-4.1858,-4.1881,-4.1604,-4.1605,-4.1605,0,-4.1219,-4.1296,-4.1256,-4.132,-4.1341,-4.1271,-4.1351,-4.1363,-4.1389,-4.1406,-4.1359,-4.1453,-4.1458,-4.1562,-4.1604,-4.1619,-4.1641,-4.1591,-4.1777,-4.1795,-4.1812,-4.1871,-4.1895,-4.1612,-4.1611,-4.161,-4.161,0,-4.1409,-4.1464,-4.1525,-4.1553,-4.158,-4.1652,-4.1623,-4.1656,-4.1625,-4.1614,-4.1697,-4.17,-4.1739,-4.1761,-4.1732,-4.1862,-4.1836,-4.1784,-4.1702,-4.1845,-4.19,-4.1923,-4.1623,-4.162,-4.1618,-4.1616,0,0,-4.1643,-4.1648,-4.1671,-4.1684,-4.1695,-4.1737,-4.1805,-4.1844,-4.1874,-4.1895,-4.1952,-4.2018,-4.1971,-4.199,-4.1961,-4.2015,-4.2153,-4.1956,-4.1956,-4.1994,-4.2299,-4.234,-4.2367,-4.2122,-4.2126,-4.2129,-4.2298,0,-4.1805,-4.1923,-4.189,-4.2008,-4.2059,-4.1994,-4.2055,-4.2069,-4.206,-4.2102,-4.2091,-4.214,-4.2072,-4.2083,-4.2134,-4.2125,-4.2214,-4.2112,-4.2177,-4.2179,-4.2177,-4.2395,-4.2438,-4.2597,-4.232,-4.2323,-4.2326,0,-4.2011,-4.204,-4.2165,-4.2169,-4.2189,-4.2244,-4.2277,-4.2318,-4.2333,-4.2323,-4.2345,-4.2306,-4.2375,-4.2292,-4.2387,-4.2319,-4.2343,-4.2343,-4.2348,-4.2354,-4.2262,-4.2409,-4.2647,-4.2672,-4.2359,-4.2356,-4.2354,0,-4.2172,-4.2242,-4.2326,-4.2338,-4.2345,-4.2385,-4.239,-4.24,-4.2426,-4.2456,-4.2472,-4.2509,-4.253,-4.256,-4.2532,-4.2474,-4.2633,-4.2547,-4.2628,-4.2629,-4.2665,-4.2664,-4.2913,-4.2678,-4.2678,-4.2677,-4.2677,0,-4.2358,-4.2437,-4.2398,-4.245,-4.2537,-4.2498,-4.2585,-4.2582,-4.2593,-4.2644,-4.2589,-4.2638,-4.2598,-4.2644,-4.2622,-4.2706,-4.2715,-4.271,-4.2703,-4.2716,-4.2717,-4.2732,-4.2721,-4.2684,-4.2682,-4.2681,-4.268,0,-4.2552,-4.253,-4.2617,-4.2616,-4.2618,-4.2683,-4.2682,-4.2731,-4.2718,-4.2783,-4.2796,-4.2776,-4.2828,-4.2803,-4.2856,-4.2841,-4.295,-4.2928,-4.2945,-4.294,-4.3023,-4.3016,-4.3292,-4.3327,-4.3069,-4.3071,-4.3073,0,-4.2674,-4.2733,-4.2739,-4.2769,-4.2778,-4.2827,-4.2854,-4.2817,-4.2847,-4.287,-4.2916,-4.2963,-4.2998,-4.3083,-4.3074,-4.3115,-4.3095,-4.3188,-4.31,-4.3112,-4.3098,-4.3096,-4.3103,-4.3207,-4.321,-4.3212,-4.3214,0,-4.2892,-4.2878,-4.2918,-4.2956,-4.2989,-4.3016,-4.3039,-4.3067,-4.3031,-4.3068,-4.312,-4.3148,-4.3203,-4.325,-4.3286,-4.3291,-4.3248,-4.3242,-4.3263,-4.3277,-4.3285,-4.3284,-4.2995,-4.3236,-4.3234,-4.3232,-4.3231,-4.323,-4.3055,-4.3105,-4.3118,-4.3165,-4.3179,-4.3202,-4.3248,-4.3241,-4.3284,-4.3326,-4.3301,-4.3363,-4.3378,-4.3422,-4.3433,-4.3481,-4.3444,-4.3474,-4.3482,-4.3491,-4.3503,-4.3277,-4.3487,-4.3487,-4.3486,-4.3485,-4.3485,0,-4.3272,-4.3277,-4.3321,-4.3355,-4.3393,-4.3348,-4.3371,-4.3406,-4.346,-4.3478,-4.3514,-4.3575,-4.3621,-4.3616,-4.3659,-4.3699,-4.368,-4.3711,-4.3709,-4.3711,-4.3533,-4.3511,-4.3726,-4.3726,-4.3726,-4.3726,-4.3726,-4.3726,-4.3389,-4.3473,-4.3461,-4.3552,-4.3556,-4.3616,-4.3634,-4.3655,-4.3669,-4.374,-4.3778,-4.3774,-4.3783,-4.3826,-4.3867,-4.3864,-4.3884,-4.3923,-4.3914,-4.3747,-4.3723,-4.3701,-4.368,-4.3927,-4.3927,-4.4088,-4.409,-4.4091]},{"header":{"parameterUnit":"m.s-1","parameterCategory":1,"la1":30.2991,"la2":30.254,"lo1":-89.0895,"lo2":-89.0444,"dy":0.0017,"dx":0.0017,"nx":28,"ny":28,"refTime":"2023-09-22T03:00:00:Z","depth":0,"parameterNumber":3,"parameterNumberName":"V-component_of_WINDS"},"data":[0,0,0,0,0,0,0,0,0,0,0,0,0,0,0,0,0,0,0,0,0,0,0,0,0,0,0,0,0,0,0,0,0,0,0,0,0,0,0,0,0,0,0,0,0,0,0,0,0,0,0,0,0,0,0,0,0,0,-2.2849,-2.2849,0,-2.289,-2.289,-2.289,-2.2859,-2.2858,-2.2856,-2.2855,-2.2897,-2.2899,-2.2901,0,0,0,0,0,0,0,0,0,0,0,0,0,-2.2742,-2.2744,-2.2849,-2.2849,-2.285,-2.289,-2.289,-2.2891,-2.2859,-2.2858,-2.2856,-2.2854,-2.2896,-2.2899,-2.2902,0,0,0,0,0,0,0,0,0,0,0,0,0,-2.2786,-2.2745,-2.2849,-2.2839,-2.2838,-2.2889,-2.289,-2.2891,-2.286,-2.2857,-2.2855,-2.2854,-2.2895,-2.2898,-2.2902,-2.2965,0,0,-2.2913,-2.2914,0,0,0,0,0,0,0,0,-2.2784,-2.279,-2.284,-2.284,-2.2839,-2.2867,-2.2868,-2.2916,-2.286,-2.2852,-2.2855,-2.2853,-2.2888,-2.2892,-2.2905,-2.2967,-2.2968,-2.2913,-2.2915,-2.2917,-2.2918,0,0,0,0,0,0,0,-2.2781,-2.2788,-2.2865,-2.2841,-2.284,-2.2832,-2.2836,-2.2877,-2.2881,-2.2852,-2.285,-2.2855,-2.2888,-2.2901,-2.2905,-2.2969,-2.2913,-2.2916,-2.2918,-2.292,-2.3084,-2.3086,0,0,0,0,0,0,-2.2779,-2.2786,-2.2864,-2.2866,-2.2806,-2.2836,-2.284,-2.286,-2.288,-2.2881,-2.2857,-2.2854,-2.2896,-2.2901,-2.2907,-2.2981,-2.2917,-2.292,-2.2922,-2.3082,-2.3084,-2.3087,0,0,0,0,0,0,-2.2777,-2.2786,-2.2862,-2.2825,-2.2834,-2.284,-2.2862,-2.2862,-2.2875,-2.2884,-2.2884,-2.287,-2.2895,-2.2902,-2.295,-2.2982,-2.2922,-2.2925,-2.3079,-2.3082,-2.3086,-2.3131,0,0,0,0,0,0,-2.2774,-2.2786,-2.281,-2.2826,-2.2837,-2.2906,-2.2864,-2.2864,-2.2882,-2.2878,-2.2896,-2.2897,-2.2894,-2.2945,-2.2954,-2.2986,-2.2928,-2.3076,-2.3081,-2.3084,-2.3127,-2.3136,-2.3143,0,0,0,0,0,-2.277,-2.2821,-2.2811,-2.2821,-2.2867,-2.2907,-2.2913,-2.2908,-2.2884,-2.2909,-2.2914,-2.2897,-2.2977,-2.295,-2.296,-2.2994,-2.3074,-2.3079,-2.3084,-2.3123,-2.3134,-2.3143,0,0,0,0,0,0,-2.2809,-2.2823,-2.2812,-2.287,-2.2888,-2.2902,-2.2933,-2.292,-2.2944,-2.294,-2.2932,-2.2936,-2.2987,-2.2995,-2.2965,-2.3055,-2.3022,-2.3029,-2.3048,-2.3059,-2.3067,-2.3064,-2.2931,0,0,0,0,0,-2.2824,-2.2856,-2.2867,-2.2917,-2.2926,-2.2928,-2.2945,-2.2939,-2.2957,-2.2964,-2.2973,-2.2991,-2.302,-2.304,-2.3067,-2.3128,-2.3131,-2.3155,-2.3163,-2.317,-2.3177,-2.3209,-2.322,-2.3103,-2.3103,-2.3103,0,0,-2.2856,-2.2868,-2.2888,-2.2925,-2.2938,-2.297,-2.2934,-2.2971,-2.2995,-2.297,-2.3017,-2.3024,-2.3043,-2.3098,-2.3122,-2.3106,-2.3209,-2.3177,-2.3182,-2.3185,-2.3215,-2.3226,-2.3236,-2.3107,-2.3106,-2.3105,0,0,-2.2931,-2.2943,-2.2986,-2.3,-2.3019,-2.302,-2.303,-2.3046,-2.305,-2.3096,-2.3078,-2.3106,-2.3157,-2.3171,-2.3185,-2.3264,-2.3249,-2.3273,-2.3316,-2.3347,-2.3357,-2.3365,-2.3393,-2.3403,-2.3279,-2.3279,-2.3279,0,-2.2969,-2.3018,-2.301,-2.3048,-2.3064,-2.3042,-2.3085,-2.3099,-2.3126,-2.3138,-2.3119,-2.3181,-2.3193,-2.325,-2.3269,-2.3281,-2.3293,-2.3271,-2.3356,-2.3364,-2.3371,-2.3398,-2.3409,-2.3282,-2.3282,-2.3281,-2.3281,0,-2.3062,-2.3096,-2.3129,-2.3156,-2.3175,-2.3216,-2.3214,-2.3234,-2.3226,-2.3229,-2.3276,-2.3289,-2.3318,-2.3331,-2.3324,-2.3387,-2.3377,-2.3357,-2.3323,-2.3386,-2.3411,-2.3421,-2.3286,-2.3285,-2.3284,-2.3284,0,0,-2.3165,-2.3186,-2.3198,-2.321,-2.3229,-2.3255,-2.3294,-2.3322,-2.334,-2.3359,-2.3392,-2.3434,-2.3416,-2.3431,-2.3425,-2.3453,-2.3514,-2.343,-2.343,-2.3445,-2.3585,-2.36,-2.3613,-2.3504,-2.3506,-2.3507,-2.3584,0,-2.3241,-2.3309,-2.3303,-2.3367,-2.3398,-2.3377,-2.341,-2.3426,-2.3429,-2.3455,-2.3458,-2.3488,-2.3461,-2.3471,-2.3497,-2.3501,-2.3542,-2.3496,-2.3534,-2.3535,-2.3531,-2.3626,-2.3642,-2.3714,-2.3593,-2.3595,-2.3596,0,-2.334,-2.3362,-2.343,-2.3443,-2.3456,-2.3487,-2.3512,-2.3537,-2.3554,-2.3554,-2.3571,-2.3559,-2.3598,-2.3562,-2.3615,-2.3583,-2.3598,-2.3603,-2.3605,-2.3609,-2.357,-2.3633,-2.3736,-2.3747,-2.3612,-2.361,-2.3609,0,-2.3408,-2.3455,-2.3501,-2.3512,-2.3529,-2.3551,-2.3559,-2.3573,-2.3591,-2.3612,-2.3623,-2.3649,-2.3663,-2.3683,-2.3679,-2.3654,-2.3733,-2.3697,-2.3734,-2.3734,-2.3752,-2.3751,-2.386,-2.3761,-2.3761,-2.376,-2.376,0,-2.3495,-2.3537,-2.3532,-2.3561,-2.3607,-2.3598,-2.3644,-2.365,-2.3662,-2.3691,-2.3674,-2.3702,-2.3694,-2.3721,-2.3717,-2.3761,-2.3768,-2.3769,-2.3768,-2.3771,-2.3771,-2.3781,-2.3777,-2.3763,-2.3763,-2.3762,-2.3762,0,-2.358,-2.3578,-2.3627,-2.3639,-2.3643,-2.3676,-2.3686,-2.3713,-2.3714,-2.375,-2.3758,-2.376,-2.379,-2.3788,-2.3822,-2.382,-2.3874,-2.3867,-2.3869,-2.3868,-2.3905,-2.3901,-2.4025,-2.404,-2.393,-2.3931,-2.3932,0,-2.3635,-2.3667,-2.3682,-2.37,-2.371,-2.3739,-2.3756,-2.3749,-2.3767,-2.3788,-2.3812,-2.3841,-2.3864,-2.3913,-2.3917,-2.3943,-2.3937,-2.3978,-2.3941,-2.3943,-2.3938,-2.3936,-2.3939,-2.3986,-2.3987,-2.3988,-2.3989,0,-2.3735,-2.3732,-2.3758,-2.3783,-2.3804,-2.3823,-2.3841,-2.3857,-2.385,-2.3872,-2.3903,-2.3921,-2.3955,-2.3984,-2.4009,-2.4016,-2.4002,-2.4,-2.401,-2.4014,-2.4015,-2.4015,-2.389,-2.3998,-2.3997,-2.3996,-2.3996,-2.3995,-2.3807,-2.3834,-2.3849,-2.3878,-2.389,-2.3906,-2.3932,-2.3935,-2.3961,-2.3989,-2.3982,-2.4017,-2.4032,-2.4063,-2.4073,-2.41,-2.4085,-2.4099,-2.4103,-2.4107,-2.4111,-2.4009,-2.4104,-2.4104,-2.4104,-2.4103,-2.4103,0,-2.3906,-2.3914,-2.394,-2.3965,-2.3988,-2.3971,-2.3989,-2.4009,-2.404,-2.4055,-2.4077,-2.4113,-2.414,-2.4146,-2.4172,-2.4192,-2.4186,-2.4199,-2.4198,-2.42,-2.4123,-2.4112,-2.4204,-2.4204,-2.4204,-2.4204,-2.4204,-2.4204,-2.396,-2.4005,-2.4004,-2.4054,-2.4062,-2.4096,-2.4108,-2.4122,-2.4134,-2.4174,-2.4197,-2.42,-2.4211,-2.4237,-2.4262,-2.4262,-2.4273,-2.4289,-2.4288,-2.4216,-2.4206,-2.4196,-2.4186,-2.4292,-2.4292,-2.4363,-2.4363,-2.4364]}]]